Location: Unspecified
(0.0000°N, 0.0000°E)
Time: 03:17:38
(UTC+00:00)

ITUPSAT 1 - Pass Details

Date: 16 December 2017
Orbit: 701 x 714 km, 98.6° (Epoch: 16 August)

Event Time Altitude Azimuth Distance (km) Brightness Sun altitude
Rises 03:52:41 0° 192° (SSW) 3,101 ? -28.0°
Reaches altitude 10° 03:55:21 10° 206° (SSW) 2,177 ? -27.4°
Enters shadow 03:55:22 10° 206° (SSW) 2,177 ? -27.4°
